Dewpoint
67 65 66 67 66 60 47 46 39 44 44 41 42 42 40 40 41 39 37 35 35 41 42 43 45 46 51 51 49 51 51 48 50 45 45 56 63 67 69 69 68 69 69 71 72 73 73 73 74 74 73 73 74 74 74 74 73 73 73 73 73 73 73 72 72 71 71 71 71 72 72 72 71 71 71 71 72 72 72 72 72 72 73 73 73 73 72 72 73 73 73 72 72 71 71 72 71
57 61 62 65 60 57 55 45 44 43 43 42 42 40 40 39 38 36 35 35 34 45 47 49 53 53 54 52 52 51 48 48 53 54 58 61 68 69 69 69 68 68 69 71 72 72 72 73 74 73 73 73 74 74 74 74 73 73 73 73 73 73 73 72 72 72 71 72 72 72 72 72 71 71 71 71 71 72 72 72 72 72 73 72 72 72 72 72 72 73 73 73 72 72 72 71 71
52 55 55 58 52 55 53 50 44 41 40 39 39 41 41 39 38 36 34 33 44 47 50 52 52 51 52 52 53 52 48 49 55 62 66 67 65 68 69 68 68 69 70 71 71 72 72 73 73 73 73 73 73 73 74 73 73 73 73 73 73 73 72 72 72 72 72 72 72 72 71 71 71 71 71 71 71 72 72 72 72 72 73 73 72 72 72 72 73 73 73 73 72 72 72 71 72
59 51 53 50 46 50 48 46 44 40 36 36 33 33 35 38 37 37 36 38 44 44 46 46 48 52 50 48 54 51 51 50 58 64 64 63 62 69 69 68 70 69 70 70 71 71 72 73 73 73 73 73 73 73 73 73 73 73 73 73 73 72 72 72 72 72 72 72 72 72 72 71 71 71 71 71 71 71 72 72 72 72 72 72 72 72 72 72 73 73 73 72 72 73 73 73 72
48 56 49 48 45 47 47 44 43 41 40 37 33 34 35 32 31 28 34 41 42 47 49 50 53 55 56 54 55 52 52 50 58 62 64 68 69 69 69 69 69 69 69 70 71 71 72 73 73 73 73 73 73 73 73 73 73 73 73 73 73 72 72 72 72 72 72 72 72 72 72 71 71 71 71 71 71 71 71 72 72 72 72 72 72 71 71 72 72 72 73 72 72 72 73 73 73
47 46 55 52 49 48 43 41 37 39 41 38 35 35 34 31 31 32 44 45 46 48 49 51 52 54 55 58 59 60 58 49 58 66 67 68 68 69 69 69 69 69 69 70 71 71 72 73 73 73 73 73 73 73 73 73 73 73 73 73 72 72 72 72 71 71 71 72 71 71 71 71 71 71 71 71 71 71 71 71 71 71 72 72 71 71 71 72 72 72 72 73 73 72 72 72 72
43 42 47 49 48 49 41 38 37 35 35 38 37 36 36 32 27 24 44 47 50 53 55 53 54 53 52 54 60 59 61 55 64 66 67 68 69 69 68 68 68 68 69 70 70 71 72 73 73 73 73 72 72 72 72 73 73 73 73 72 72 72 71 71 71 71 71 71 71 71 71 71 71 71 71 70 71 71 71 71 71 71 71 71 71 71 72 71 72 72 72 73 73 73 72 72 72
45 39 43 45 44 39 37 37 35 32 31 31 32 32 32 30 25 22 22 38 48 50 52 53 53 54 55 57 56 59 63 64 66 68 68 68 68 68 67 67 67 68 69 70 71 71 73 73 72 72 72 72 72 72 72 72 73 72 72 72 72 72 71 71 71 71 71 71 71 71 71 71 71 71 70 70 70 70 70 71 70 71 71 71 71 71 71 71 71 72 72 72 72 73 73 73 73
39 37 43 38 42 40 32 31 32 31 31 30 29 31 44 33 27 20 18 36 47 49 51 53 54 52 57 58 58 62 62 66 67 69 68 68 67 67 67 67 67 68 69 70 71 72 72 73 72 72 72 72 72 71 72 71 72 72 72 71 71 72 72 71 70 71 71 71 72 71 71 71 71 71 70 70 70 70 70 70 70 70 71 71 71 71 70 70 71 72 72 72 72 72 73 73 73
39 36 35 34 36 35 37 36 31 29 28 28 27 27 27 24 20 19 19 36 48 50 52 55 56 55 57 57 58 60 62 66 67 67 67 67 66 66 66 67 68 68 69 70 71 71 72 73 72 72 72 72 72 71 71 71 71 71 71 71 72 72 72 71 71 71 72 72 72 72 72 72 71 71 71 71 69 69 70 69 69 70 70 71 71 70 70 70 71 71 72 72 72 72 72 72 73
32 32 35 34 32 29 29 30 30 29 27 26 26 27 26 24 22 21 21 42 50 50 54 56 56 57 59 60 59 64 67 66 66 66 68 66 66 66 66 68 68 69 69 70 71 71 71 72 72 72 72 72 71 71 71 71 71 71 71 71 72 72 72 71 71 71 72 72 72 72 71 71 71 71 71 71 70 69 69 69 69 69 70 71 70 70 69 70 70 71 72 72 71 72 72 72 72
33 31 28 27 27 28 27 27 27 27 27 26 24 24 23 23 22 21 35 47 50 52 53 55 55 57 56 59 57 64 63 62 65 66 66 65 65 66 68 69 69 69 70 70 71 71 71 71 71 72 72 72 71 71 71 71 71 71 71 71 72 72 72 72 71 72 72 72 72 71 71 71 71 71 71 71 70 69 69 69 69 69 70 70 70 70 69 69 69 71 72 72 71 72 72 72 72
37 33 29 28 27 26 26 24 25 31 26 24 25 25 26 24 22 23 30 47 51 50 50 53 56 57 55 58 60 65 60 62 63 68 70 67 70 70 70 70 69 70 70 70 70 71 71 71 71 71 71 71 71 71 71 71 70 70 71 71 71 71 71 71 71 71 72 72 72 71 71 71 71 71 71 70 70 70 70 69 69 69 69 70 70 69 68 69 69 70 71 72 71 71 72 72 72
44 37 34 30 28 26 24 24 24 23 22 23 23 24 25 25 28 23 40 46 49 47 49 55 55 56 58 59 59 61 63 66 64 67 68 69 70 70 69 70 69 69 70 70 70 71 71 71 71 71 71 70 70 71 71 71 71 70 70 70 71 71 71 71 71 72 72 72 71 71 71 71 71 71 71 70 70 70 70 70 69 70 69 69 69 69 68 69 69 70 71 71 72 71 71 71 71
40 51 36 30 26 27 25 23 23 22 22 22 22 21 23 26 24 25 39 43 47 51 55 56 56 53 55 57 57 60 63 64 66 68 69 70 70 69 69 69 69 69 70 70 70 70 70 70 70 70 71 70 70 70 70 70 71 70 70 69 70 70 70 71 71 72 72 71 71 71 71 71 70 71 71 70 70 70 70 70 70 70 69 69 69 68 68 68 69 70 70 72 71 71 71 71 70
46 45 40 33 26 26 25 24 24 23 23 23 22 26 26 26 28 45 49 41 50 54 56 55 56 54 56 55 56 60 62 62 65 67 69 69 69 69 69 69 69 69 69 70 70 70 70 70 70 70 70 70 70 70 70 70 70 70 70 69 69 70 70 70 70 71 71 71 70 71 71 70 70 70 71 70 70 70 70 70 70 69 69 69 69 69 68 68 69 68 70 71 71 71 71 70 71
38 35 35 30 25 25 25 25 25 23 23 23 27 27 26 26 27 37 49 50 52 55 52 54 55 56 57 56 59 60 61 64 65 67 68 68 68 68 68 68 68 68 69 69 70 70 70 70 70 70 70 70 70 70 70 70 69 71 69 69 69 69 69 69 69 69 69 70 69 70 71 69 69 69 70 70 70 70 69 69 70 69 69 69 69 69 68 68 69 68 68 71 71 71 71 71 70
33 31 29 27 27 25 25 25 25 26 24 25 25 28 28 26 28 27 37 50 48 54 57 57 59 59 60 58 61 61 62 62 65 67 67 67 67 67 67 67 67 67 68 68 69 70 70 70 69 69 70 70 70 70 70 70 70 70 70 70 69 68 68 68 68 69 70 69 70 70 70 70 68 69 70 71 70 70 69 70 70 69 69 69 69 69 68 68 69 68 68 68 71 71 71 66 69
32 31 28 24 25 27 27 26 26 26 25 25 25 28 28 27 27 27 24 48 48 51 56 55 57 59 59 60 60 60 61 61 65 66 66 66 66 66 66 66 66 67 67 67 68 69 70 69 69 69 69 70 70 70 70 70 70 69 70 70 69 69 68 68 68 69 68 68 69 70 71 69 69 70 70 70 70 70 70 70 70 69 69 69 69 69 68 68 68 68 68 68 69 71 68 64 65
30 29 27 26 26 26 27 27 27 27 27 27 27 28 30 29 29 28 31 45 50 50 49 53 57 58 58 59 61 61 61 63 65 66 65 65 65 66 66 66 66 66 66 67 68 68 69 69 69 69 69 69 70 70 70 70 70 70 70 69 69 69 69 69 69 69 68 68 69 69 69 69 69 69 71 71 71 69 69 70 70 69 69 69 69 70 69 68 68 68 68 68 70 69 66 67 66
28 28 26 27 27 26 26 26 26 27 27 27 27 28 27 27 30 30 30 24 37 49 53 53 57 60 61 60 62 63 63 63 64 65 64 65 65 66 66 66 66 66 67 67 68 68 68 69 69 69 69 69 69 70 70 70 70 70 70 70 69 69 68 68 68 68 68 68 69 69 70 70 69 69 69 69 69 68 67 67 68 67 66 66 69 65 65 67 67 65 65 67 64 65 64 64 65
28 26 27 26 26 25 26 26 26 26 27 26 25 25 25 27 29 27 26 25 41 46 53 57 59 60 59 61 62 63 62 62 62 63 63 64 64 65 66 66 66 67 67 67 67 67 68 68 69 69 68 68 68 69 69 70 70 70 70 69 69 69 68 68 67 67 67 67 68 69 69 69 68 68 68 69 68 68 67 67 67 66 65 66 68 65 64 64 63 65 64 63 63 64 63 62 63
24 25 26 26 25 24 25 25 25 25 25 25 24 24 25 31 29 26 26 25 27 46 53 55 58 59 60 60 60 62 62 62 62 62 62 63 63 64 64 65 66 66 67 66 67 67 67 67 69 70 69 68 68 68 69 70 69 69 69 69 69 68 68 67 67 66 66 66 67 68 68 68 68 68 68 69 68 68 67 67 66 66 66 66 66 65 64 64 64 64 62 61 60 61 62 61 62
20 21 24 25 26 24 24 24 24 25 25 24 25 26 24 25 25 27 25 26 27 49 54 58 58 57 58 58 59 61 61 62 62 62 62 62 63 63 64 65 65 66 66 66 66 66 67 67 67 69 69 68 68 68 69 69 69 69 69 69 69 68 68 67 67 66 65 65 66 67 67 67 67 67 67 68 68 68 68 67 67 66 66 66 66 66 65 63 63 63 62 60 59 59 58 59 59
14 15 17 18 25 26 25 24 24 24 25 26 26 25 25 25 27 26 26 29 49 52 54 55 58 58 58 60 61 62 61 61 62 62 62 61 62 64 64 65 65 66 66 66 66 66 66 67 67 69 69 68 69 69 69 69 69 69 68 69 69 69 68 67 67 67 65 64 65 66 66 64 65 67 67 68 68 68 67 67 67 67 66 66 66 66 65 64 63 63 62 61 59 59 58 58 58
13 13 15 16 17 21 25 25 24 24 23 23 24 25 26 25 26 24 25 25 32 48 55 59 61 60 61 61 61 62 61 61 61 61 62 63 63 63 63 64 65 66 66 66 66 66 66 66 66 67 69 69 69 69 68 68 68 68 68 68 68 69 68 68 67 67 66 64 63 64 65 64 63 65 66 67 67 67 67 67 67 66 66 66 65 65 65 64 64 63 62 61 60 58 58 57 59
10 8 9 8 9 13 18 20 22 24 23 21 19 20 20 21 20 19 37 32 30 47 55 59 60 60 60 59 58 62 62 61 61 61 62 63 63 62 63 64 65 66 66 66 66 67 67 66 65 66 68 69 69 69 69 68 68 68 68 68 68 68 68 68 68 67 66 64 63 63 63 64 63 64 65 66 67 67 67 67 66 66 66 65 65 65 65 63 63 63 63 61 60 58 58 57 58
10 8 8 9 9 10 10 10 9 17 20 21 20 19 20 20 20 19 20 29 40 54 55 58 59 59 58 57 58 59 61 62 61 62 61 62 63 62 63 64 65 65 65 66 66 67 68 67 66 65 67 69 69 69 69 68 68 67 68 68 68 68 68 68 68 67 66 64 63 63 63 63 64 63 64 64 66 66 66 66 66 66 65 65 64 65 64 63 62 62 63 62 61 61 61 60 59
8 8 6 7 8 10 11 9 9 12 12 18 20 19 19 19 18 20 20 22 32 52 57 56 57 59 57 57 57 58 59 62 62 61 61 62 63 63 63 64 64 65 65 65 66 67 67 67 67 66 66 68 68 69 69 69 68 67 68 68 68 68 68 68 68 67 66 65 63 62 62 63 64 63 63 64 65 65 66 66 65 65 65 64 64 64 64 63 62 62 63 62 62 63 63 63 63
7 10 6 4 6 6 8 13 11 12 13 14 19 16 18 19 19 20 25 28 36 35 55 56 56 58 57 58 58 60 61 62 61 61 61 62 63 63 63 64 64 64 65 66 66 66 67 67 68 68 67 67 68 69 69 69 68 67 68 68 68 68 68 68 68 67 67 65 63 63 62 63 63 63 63 63 63 63 65 65 65 65 64 64 64 64 64 63 62 61 61 64 66 64 63 63 63
4 4 5 7 6 6 9 11 10 8 14 15 19 15 17 19 19 22 26 31 34 34 52 55 55 57 57 58 59 60 62 62 62 61 62 62 63 64 63 64 64 64 65 66 65 66 67 67 67 67 68 67 67 68 69 69 69 67 67 68 68 68 68 68 68 67 66 65 64 63 63 63 64 64 64 63 63 62 63 64 65 65 65 64 64 64 63 63 62 61 64 65 65 64 64 64 63
3 1 4 6 9 6 6 10 12 7 10 15 11 12 14 16 18 30 37 32 31 30 41 54 55 56 57 58 59 60 61 62 62 62 62 62 63 64 63 64 64 64 65 65 65 66 66 66 66 67 67 68 67 68 69 69 69 68 67 69 68 68 68 67 67 67 65 65 64 63 64 64 64 65 65 64 63 63 62 63 64 65 65 64 64 64 63 62 62 64 65 66 65 64 65 64 63
8 3 6 3 2 2 2 5 10 9 8 8 7 5 17 14 27 30 40 39 36 28 27 39 56 57 57 58 59 60 61 61 62 62 62 62 63 64 63 64 64 64 65 65 65 65 65 66 66 66 67 68 68 67 68 68 68 68 68 68 68 68 68 67 67 66 65 64 64 63 64 64 64 65 67 65 64 64 64 64 64 65 65 64 63 64 63 62 63 64 64 64 65 65 64 64 64
9 9 7 6 1 2 -1 2 0 7 7 5 7 7 12 15 19 18 32 42 38 31 29 36 54 56 57 58 59 59 60 60 60 60 61 62 63 63 64 64 64 64 65 65 65 65 65 65 65 66 66 67 68 67 67 68 68 68 67 67 68 67 67 67 66 65 64 64 64 64 64 64 64 65 66 66 66 65 64 64 64 64 64 64 63 64 63 63 64 64 64 64 64 65 64 64 64
12 14 12 8 6 2 -1 -1 0 -1 7 5 5 5 6 6 8 9 19 43 41 37 35 33 35 53 56 58 58 59 60 59 58 59 60 61 62 63 63 63 64 64 64 65 65 65 65 65 65 65 66 67 67 67 67 67 67 67 67 67 67 67 67 67 66 64 64 64 63 64 64 64 65 65 66 66 66 66 64 64 64 64 64 63 63 63 64 63 64 63 64 64 64 64 65 64 64
7 7 9 9 7 3 -0 -1 -0 1 -2 -3 -0 3 7 6 6 12 18 23 26 30 38 39 40 44 53 56 57 57 59 59 57 58 60 61 61 62 62 62 64 64 64 64 64 64 64 65 65 65 66 66 67 67 67 66 66 66 65 66 66 66 66 66 65 64 63 64 64 64 64 64 64 64 65 66 66 66 64 64 64 64 63 63 64 63 64 63 63 63 63 64 64 64 63 64 64
4 8 7 5 3 2 3 3 1 1 2 0 -1 1 2 5 7 11 15 18 20 21 24 31 32 40 48 52 54 56 57 58 58 58 60 60 61 62 62 62 63 64 64 63 64 64 64 64 64 65 66 66 66 66 66 66 65 65 65 65 66 66 65 65 65 64 63 63 64 64 64 64 64 64 65 65 65 67 65 63 63 64 64 64 64 63 64 64 64 63 63 63 64 63 63 63 64
6 5 4 1 3 0 1 -1 -1 -1 1 4 9 6 7 9 12 13 18 21 16 18 19 21 24 29 41 47 51 53 56 59 60 60 61 61 60 61 62 61 62 62 63 63 63 64 64 64 64 64 64 66 66 66 66 66 65 65 64 65 65 65 65 64 64 64 63 63 64 64 65 64 64 64 65 65 65 65 66 63 63 65 64 64 65 65 64 65 64 64 63 62 62 63 63 64 64
5 5 6 3 1 1 -0 -1 -1 -1 -0 5 7 2 7 10 11 12 17 22 22 23 24 24 26 23 30 40 47 50 52 55 58 61 62 63 61 61 62 61 62 62 63 63 63 63 63 63 64 64 65 66 66 66 66 65 65 65 64 64 65 65 65 65 64 64 64 62 64 64 65 64 64 63 64 65 64 65 66 65 64 65 65 64 66 65 64 64 64 64 63 63 62 62 62 64 63
9 5 6 3 2 -0 -1 -0 1 1 8 3 6 4 11 21 19 19 20 22 21 21 21 25 31 29 27 29 37 44 48 50 54 59 61 63 63 61 62 62 61 62 62 62 62 63 63 64 64 65 65 66 66 66 66 65 65 65 65 65 66 65 64 65 65 65 64 62 63 64 64 64 64 63 64 64 64 64 65 66 66 66 66 65 65 65 64 64 64 64 64 63 63 62 62 63 64
8 7 4 0 -1 -1 -2 -2 4 5 4 10 5 11 15 24 11 12 13 21 14 15 20 24 26 35 35 36 34 37 43 47 50 56 60 62 63 62 62 62 61 62 62 62 63 63 64 64 65 66 66 66 66 66 66 65 65 65 64 65 66 65 65 64 64 63 64 63 62 63 64 64 64 63 63 64 64 64 65 67 67 67 67 67 66 66 65 65 64 64 64 63 63 63 62 61 63
11 9 4 1 -0 3 3 3 3 5 6 6 2 5 11 18 12 15 15 20 12 16 20 19 25 25 28 29 30 33 42 41 48 53 58 61 63 63 62 62 61 61 62 62 63 64 64 64 65 66 66 66 66 66 65 65 64 64 63 63 64 64 63 63 63 62 63 62 61 63 63 64 63 63 63 64 64 64 64 66 68 68 67 67 67 66 66 65 65 64 64 63 63 63 63 62 62
9 3 2 -0 5 4 3 2 2 5 4 3 6 3 6 12 10 10 15 15 13 18 22 20 21 22 25 30 32 27 28 39 46 51 55 60 62 63 63 63 62 61 62 63 65 65 65 65 65 66 65 65 66 66 65 65 64 64 63 63 63 63 63 63 63 63 63 63 61 62 63 64 63 62 63 64 64 65 65 65 67 68 68 67 67 67 66 66 65 65 64 63 63 63 62 62 62
7 3 7 4 4 3 5 3 3 5 13 8 5 6 1 2 7 18 17 12 13 13 15 17 15 18 20 22 28 28 32 32 38 47 53 57 60 61 61 62 63 62 62 64 65 66 65 65 65 65 65 65 65 66 65 65 64 64 63 63 62 63 63 63 63 63 63 63 60 62 63 63 63 62 63 64 64 65 65 65 67 67 68 67 67 67 67 66 65 65 65 64 64 63 62 62 62
8 7 7 3 4 5 7 1 3 8 4 1 5 5 6 14 11 13 15 6 11 12 13 11 12 16 18 19 22 21 24 28 29 39 50 55 58 60 62 62 64 64 64 65 66 66 66 65 65 65 65 65 65 65 65 65 64 64 63 63 62 62 63 63 63 63 62 63 61 61 63 63 63 62 62 64 64 65 66 66 66 67 67 67 67 67 67 67 66 65 65 64 63 63 63 62 62
10 9 8 9 6 7 10 5 2 8 2 2 6 6 1 3 11 8 14 9 11 12 10 10 12 15 14 14 16 20 20 26 31 30 39 53 57 59 62 62 62 65 66 66 66 66 66 65 65 65 65 65 65 65 65 65 64 64 63 63 62 62 62 63 63 62 62 62 61 60 62 63 63 62 62 63 64 65 66 67 66 67 67 67 67 67 67 67 66 66 65 64 64 63 63 62 62
11 7 9 7 9 11 16 12 7 11 -0 3 7 4 0 0 8 8 8 13 12 13 13 12 10 8 9 13 13 16 19 21 20 29 34 43 54 58 61 62 62 64 66 67 67 66 66 66 65 64 65 65 65 65 65 65 64 64 63 63 62 62 62 62 62 62 62 62 61 59 61 63 64 63 62 63 64 64 65 66 66 67 67 67 67 67 67 67 67 66 66 65 64 63 63 62 61
11 10 11 9 12 14 15 15 13 -0 4 7 7 9 3 3 8 10 11 13 14 14 11 12 10 7 9 10 10 11 11 12 16 21 31 39 48 57 59 61 63 64 66 67 67 67 66 66 65 64 64 65 65 65 65 65 64 64 63 63 62 62 62 62 62 62 61 62 61 60 59 63 63 64 63 63 63 64 64 65 66 66 66 67 67 67 67 67 67 67 66 66 65 64 63 62 62
12 12 15 9 9 11 8 11 7 6 1 8 11 9 10 12 7 9 10 12 11 12 10 10 10 9 11 11 11 16 12 12 12 14 20 31 43 51 58 61 63 64 66 67 67 67 66 66 65 64 64 65 65 65 64 64 64 64 64 63 63 63 62 62 62 62 62 62 61 60 59 61 63 63 63 63 63 63 63 64 65 66 66 66 67 67 67 67 67 67 66 66 65 65 64 62 62
12 12 15 14 8 6 2 9 9 11 12 12 12 10 8 11 13 17 13 11 10 11 12 10 10 13 13 11 10 10 11 11 14 16 18 23 35 50 58 61 63 65 64 65 67 67 66 66 65 65 64 64 65 65 64 64 64 64 64 64 63 63 62 62 62 62 62 62 62 60 59 59 62 63 63 63 63 63 63 63 65 65 66 66 66 67 66 66 67 67 66 66 65 65 64 63 62
13 13 9 17 14 10 4 10 3 5 9 11 14 7 10 8 13 14 11 12 12 11 11 11 15 12 12 12 9 12 14 16 16 16 25 25 29 41 57 62 63 63 62 61 63 66 67 66 66 65 64 65 65 65 65 64 64 64 64 64 64 63 63 63 62 63 62 62 63 61 60 59 60 62 63 63 63 63 63 63 64 65 65 66 66 66 66 66 66 67 67 66 65 65 65 64 63
15 11 12 13 11 23 9 17 13 13 11 12 13 8 13 10 15 17 14 13 13 15 12 16 13 12 13 15 16 18 18 17 18 20 30 29 29 41 50 60 62 61 61 61 63 66 67 66 66 65 65 65 65 65 65 65 64 64 65 64 64 64 64 63 62 62 63 62 63 63 61 60 59 60 62 63 63 63 63 63 63 64 65 66 66 66 66 66 66 66 66 66 66 65 65 64 64
21 11 13 13 18 19 18 17 22 18 16 9 15 13 14 18 16 15 17 14 12 13 14 15 15 16 18 18 18 21 21 17 19 23 32 32 30 32 46 52 57 62 63 62 63 66 67 67 66 66 65 65 65 65 65 65 65 65 65 65 64 64 64 63 63 62 63 63 63 63 63 62 61 60 61 62 63 63 63 63 63 64 64 65 66 66 66 66 66 66 66 66 66 65 65 64 64
16 14 16 19 19 18 17 9 16 10 7 10 14 10 11 11 12 17 15 15 14 15 16 17 21 20 21 25 26 26 26 25 24 23 32 34 35 36 36 47 57 60 60 60 62 66 67 67 66 66 65 65 65 65 65 65 65 65 65 65 65 64 64 64 63 62 62 63 63 63 64 63 62 62 61 62 62 63 63 63 63 64 64 65 65 65 65 65 65 66 66 66 66 65 65 64 64
20 17 20 18 14 14 23 21 7 7 6 6 13 13 13 13 14 15 14 15 15 16 21 27 28 28 30 30 29 30 31 31 30 28 29 31 37 39 38 35 45 59 60 61 62 62 62 62 67 66 66 65 65 66 66 66 65 65 65 65 65 65 64 64 64 63 63 63 63 63 64 64 63 63 62 62 62 62 63 63 63 63 64 64 65 65 65 65 65 65 66 66 66 65 65 64 64
27 25 24 25 19 20 16 15 18 14 10 8 11 13 13 18 16 17 16 16 21 28 30 31 31 31 33 33 33 34 34 34 33 32 30 30 35 41 42 47 44 51 58 59 61 61 61 62 62 62 65 66 66 66 66 66 66 65 65 65 65 65 65 64 64 63 63 63 63 63 63 64 64 63 63 62 62 62 63 62 63 63 64 64 65 65 65 65 65 65 65 65 65 65 65 64 64
27 26 27 27 28 26 20 23 17 14 11 11 13 11 16 20 21 20 24 28 30 32 32 33 33 34 35 36 36 36 36 36 36 35 33 31 31 39 44 47 46 52 57 60 60 60 59 60 62 62 62 61 63 64 65 66 66 66 65 65 65 65 65 65 64 64 63 63 63 64 64 64 64 64 63 63 63 63 62 63 63 63 63 64 64 65 65 65 65 65 65 65 65 65 65 64 64
27 26 27 27 27 24 19 17 27 27 21 18 18 18 21 23 24 28 30 32 34 34 34 35 36 36 37 38 38 37 37 37 37 37 36 34 32 34 42 42 41 47 56 58 60 60 60 61 61 61 62 63 63 63 64 65 66 66 65 65 65 65 65 65 64 64 64 63 63 64 64 64 64 64 64 63 63 63 63 63 63 63 63 64 64 64 65 65 65 65 65 65 65 65 65 64 64